Weather

DAILY 7 DAY TOTAL
onrain

Note: Some stations are located near irrigated fields and may also report irrigation

Alliston Mount Forest Blyth Guelph Grand Bend Strathroy Woodstock Belmont Simcoe Leamington Chatham West Lorne






West Lorne - Historical Weather Data
Date Max Temp (°C) Min Temp (°C) Avg Temp (°C) Rain (mm) 7Day Rain(mm) Total Rain(mm) Avg RH (%)
7/16/2019 28.4 20.5 24.0 5.4 6.0 208.6 95.7
7/15/2019 28.1 10.7 20.5 0.0 0.6 203.2 79.9
7/14/2019 29.8 12.6 21.2 0.0 0.6 203.2 76.4
7/13/2019 31.9 14.9 23.3 0.6 0.6 203.2 84.1
7/12/2019 26.3 14.8 20.1 0.0 8.4 202.6 87.2
7/11/2019 31.6 16.5 24.7 0.0 8.4 202.6 84.1
7/10/2019 30.0 14.3 22.9 0.0 8.4 202.6 86.2
7/9/2019 26.7 10.9 19.3 0.0 8.4 202.6 81.3
7/8/2019 27.6 12.6 19.9 0.0 23.6 202.6 78.3
7/7/2019 28.2 16.7 22.3 0.0 23.6 202.6 86.2
7/6/2019 31.3 20.5 25.2 8.4 23.6 202.6 92.8
7/5/2019 32.0 20.5 25.9 0.0 15.2 194.2 90.0
7/4/2019 29.6 16.7 23.6 0.0 17.2 194.2 93.3
7/3/2019 29.1 19.4 23.4 0.0 17.2 194.2 92.3
7/2/2019 32.4 19.2 24.3 15.2 17.2 194.2 88.0
7/1/2019 28.5 10.1 20.5 0.0 2.0 179.0 78.9
6/30/2019 27.5 12.9 21.1 0.0 3.0 179.0 77.4
6/29/2019 31.3 17.1 23.8 0.0 3.0 179.0 86.1
6/28/2019 30.8 15.8 23.0 2.0 3.0 179.0 87.0
6/27/2019 30.4 15.2 22.3 0.0 1.0 177.0 77.3
6/26/2019 30.2 18.0 24.2 0.0 12.6 177.0 70.1
6/25/2019 27.8 17.6 21.8 0.0 12.6 177.0 80.7
6/24/2019 26.2 17.9 21.3 1.0 12.6 177.0 88.3
6/23/2019 24.9 8.8 18.2 0.0 11.6 176.0 73.8
6/22/2019 26.9 7.6 17.3 0.0 14.2 176.0 77.1
6/21/2019 23.5 9.9 16.6 0.0 20.0 176.0 81.2
6/20/2019 19.0 14.2 17.2 11.6 20.2 176.0 99.9
6/19/2019 26.4 12.3 19.9 0.0 16.2 164.4 84.6
6/18/2019 25.0 11.9 18.4 0.0 16.2 164.4 90.3
6/17/2019 22.7 11.4 17.2 0.0 16.2 164.4 88.6
6/16/2019 17.9 12.1 15.8 2.6 24.8 164.4 98.7
6/15/2019 19.7 16.3 17.7 5.8 22.2 161.8 89.3
6/14/2019 22.0 9.1 15.8 0.2 16.4 156.0 78.2
6/13/2019 18.9 10.5 14.9 7.6 16.2 155.8 97.4
6/12/2019 23.0 11.9 17.8 0.0 8.6 148.2 70.0
6/11/2019 24.9 8.4 16.7 0.0 17.0 148.2 74.2
6/10/2019 20.8 12.0 17.4 8.6 17.0 148.2 96.1
6/9/2019 25.4 16.7 21.0 0.0 8.4 139.6 72.2
6/8/2019 26.7 12.5 20.0 0.0 10.0 139.6 65.1
6/7/2019 24.8 9.5 18.0 0.0 26.0 139.6 80.5
6/6/2019 23.6 11.3 16.2 0.0 26.0 139.6 94.6
6/5/2019 24.8 15.5 19.3 8.4 26.6 139.6 93.2
6/4/2019 23.1 8.4 16.5 0.0 18.8 131.2 81.7
6/3/2019 18.4 4.5 10.8 0.0 23.6 131.2 80.2
6/2/2019 20.8 6.4 14.5 1.6 24.0 131.2 81.9
6/1/2019 24.6 14.2 18.4 16.0 23.8 129.6 90.6
5/31/2019 21.5 6.8 15.7 0.0 15.6 113.6 83.0
5/30/2019 20.8 11.6 15.8 0.6 16.0 113.6 97.8
5/29/2019 16.9 11.1 13.4 0.6 18.4 113.0 99.8
5/28/2019 24.7 11.6 16.7 4.8 19.2 112.4 97.3
5/27/2019 22.7 6.7 15.5 0.4 14.4 107.6 79.1
5/26/2019 22.4 9.4 17.6 1.4 14.0 107.2 91.8
5/25/2019 30.1 10.8 19.1 7.8 14.6 105.8 91.2
5/24/2019 18.1 7.1 13.2 0.4 6.8 98.0 92.8
5/23/2019 25.9 9.5 18.6 3.0 6.4 97.6 81.7
5/22/2019 16.7 7.4 12.1 1.4 3.4 94.6 84.7
5/21/2019 19.6 2.3 11.3 0.0 4.8 93.2 77.7
5/20/2019 15.6 4.5 12.4 0.0 4.8 93.2 91.7
5/19/2019 27.7 11.5 17.8 2.0 9.4 93.2 89.6
5/18/2019 17.5 5.6 11.9 0.0 11.8 91.2 85.1
5/17/2019 18.6 7.2 13.6 0.0 11.8 91.2 83.3
5/16/2019 19.2 5.5 13.7 0.0 18.0 91.2 81.6
5/15/2019 21.8 7.4 13.5 2.8 34.8 91.2 82.9
5/14/2019 18.8 5.0 11.3 0.0 32.0 88.4 78.3
5/13/2019 9.2 5.3 6.7 4.6 38.6 88.4 97.3
5/12/2019 12.0 6.3 8.4 4.4 35.2 83.8 92.4
5/11/2019 13.6 1.9 7.9 0.0 30.8 79.4 83.2
5/10/2019 16.8 4.4 11.7 6.2 31.4 79.4 92.1
5/9/2019 22.2 9.5 15.2 16.8 33.0 73.2 85.8
5/8/2019 15.7 2.9 9.5 0.0 21.0 56.4 75.5
5/7/2019 9.5 3.0 6.8 6.6 56.4 56.4 95.9
5/6/2019 22.1 6.6 13.5 1.2 57.8 49.8 85.2
5/5/2019 20.3 4.5 12.1 0.0 60.6 48.6 87.1
5/4/2019 13.4 5.9 8.9 0.6 64.8 48.6 97.8
5/3/2019 11.1 6.1 8.6 7.8 64.2 48.0 99.9
5/2/2019 17.5 5.4 11.1 4.8 70.8 40.2 95.5
5/1/2019 17.4 6.2 11.8 35.4 66.4 35.4 98.9